sat.trackr.live / text

‹ back to catalog

CENTISPACE-1 S5

NORAD 54020 · 2022-126A

PAYLOAD ACTIVE UNKNOWN

§ Identity

Operator
Country
PRC
Launch date
2022-10-07
Launch site
SEAL
Launch vehicle
Mass (kg)
RCS (m²)

External: N2YO · Heavens-Above · Gunter

§ Orbital elements

Epoch: 2026-05-24T23:45:50.402016Z

Period
98.43 min
Inclination
54.9995°
Eccentricity
0.0013386
Mean motion
14.62964982 rev/d
Perigee alt
674.2 km
Apogee alt
693.1 km
Semi-major
7,061.8 km
B*
1.6154e-4
RAAN
305.7840°
Arg perigee
28.1592°
Mean anomaly
332.0123°
Rev number
19,364

§ Raw data

CENTISPACE-1 S51 54020U 22126A   26144.99016669  .00000645  00000+0  16154-3 0  99912 54020  54.9995 305.7840 0013386  28.1592 332.0123 14.62964982193647

JSON: /api/v1/satellites/54020 · /tle

For live sub-satellite position, see the globe view (requires WebGL).

§ Visibility from observer

Set your observer location to see the next 7 days of passes ≥ 10°. The values pass through the URL so the page stays shareable.

No JS? Fill the form by hand. The geolocation button needs JavaScript.

§ Radio — SatNOGS DB

ModeDescriptionDownlinkUplink
BPSK S-band telemetry 2.208 GHz
FM Telemetry (inactive) 2.208 GHz

2 transmitters · refreshed weekly from db.satnogs.org